Showing default

YAOGAN-31 C, 43277

Orbit data source: Space-Track

YAOGAN-31 C, 43277 is a payload satellite owned by PLA SSF (CN) in LEO that was launched on Tue, 10 Apr 2018 UTC via a CHANG ZHENG 4C launch vehicle from the Jiuquan Satellite Launch Center, China (JSC). Payloads include a variety of satellites, spacecraft, and rockets equipped with specific instruments for various scientific and technological missions. These include communications satellites like Starlink; space stations such as the ISS; scientific satellites like the Hubble; Earth observation satellites from companies like Planet Labs, Umbra, and HawkEye 360; GPS; miniature CubeSats for education and research; and military/defense satellites.

Loading next visibility...
YAOGAN-31 C details
Identifier
43277, 2018-034C
Orbit
LEO
Last TLE update4 hours ago
Origin
Flag of CNPLA SSF (CN / PRC)
ManufacturerDFH
MissionOperational Defense Sigint
Bus & MotorUnknown
Mass~500 kg wet, ~500 kg dry
Launch date (UTC)
2018-04-10 (7 years ago)
Launch vehicle
CHANG ZHENG 4C
Launch site
Jiuquan Satellite Launch Center, China (JSC)
Object type
Payload
Rocket body
Debris
Shape & HBRBox + 2 Pan, 1 m
Radar Cross Section0.446 m², Large (>1 m²)

Expand to show TLE details & history

TLE from 4 hours ago
0 YAOGAN-31 C
1 43277U 18034C   24361.46330094  .00000068  00000-0  22872-3 0  9992
2 43277  63.3999  33.6788 0227455   5.5344 354.8117 13.45375508329896
Epoch: 2024-12-26T11:07Z
Definitive object data (Epoch: 2024-12-26T11:07:09.201Z)
Latitude0.00005°
Longitude131.44815°
Altitude921.95 km
Speed7.475 km/s
True Right ascension02h 14m 42s
True Declination0° 00' 00"
Sunlit
Object was in daylight at TLE epoch
Visualization TLE readout
Latitude27.81027°
Longitude-64.24871°
Altitude1,225.989 km
Speed7.179 km/s
Apparent Right ascension10h 26m 48s
Apparent Declination-10° 15' 45"
Sunlit
Object is in daylight
Visualization observer readout
Local Sidereal Time14:46:49
Azimuth245.66° WSW
Elevation11.805°
Doppler factor1
Orbital elements
Apogee altitude1,257.975 km
Perigee altitude918.326 km
Semi-major axis7,466.287 km
Eccentricity0.0227455
Inclination63.3999°
RAAN33.6788°
Arg. of periapsis5.5344°
True anomaly354.56914°
Mean anomaly354.8117°
Eccentric anomaly354.69112°
Mean motion3.36423 °/min
BSTAR0.00022872
Orbital period107.01 mins
Loading maneuver chart data...
Loading historical data...
Loading historical data...
Loading historical data...
Loading historical data...
Loading historical data...
Loading historical data...
Loading historical data...

YAOGAN-31 C Visibility forecast

Observer location: undefined°, undefined

Span
Click to sort rows by Start time (UTC) header in descending order
Start Az.
Max El. time (UTC)
Max El. Az.
Max El.
End time (UTC)
End Az.
9 mins2024-12-27 03:17:49.837Z167.99° S2024-12-27 03:21:49.837Z114.921° SE28.812°2024-12-27 03:26:49.837Z54.256° ENE
10 mins2024-12-27 05:07:49.837Z247.383° WSW2024-12-27 05:11:49.837Z301.825° NW34.299°2024-12-27 05:17:49.837Z21.841° NNE
9 mins2024-12-27 10:48:49.837Z357.003° N2024-12-27 10:52:49.837Z37.269° NE19.737°2024-12-27 10:57:49.837Z80.428° E
13 mins2024-12-27 12:38:49.837Z330.965° NNW2024-12-27 12:43:49.837Z22.124° NNE43.702°2024-12-27 12:51:49.837Z140.458° SSE
9 mins2024-12-27 14:30:49.837Z286.147° WNW2024-12-27 14:34:49.837Z245.337° WSW21.464°2024-12-27 14:39:49.837Z203.735° SW
|